Regional Weather Roundup
Issued by NWS

Home | Current Version | Previous Version | Text Only | Print | Product List | Glossary On
Versions: 1 2 3 4 5 6 7 8 9 10 11 12 13 14 15 16 17 18 19 20 21 22 23 24 25 26 27 28 29 30 31 32 33 34 35 36 37 38 39 40 41 42 43 44 45 46 47 48 49 50
000
ASUS43 KMPX 242201
RWRMN
WEATHER ROUNDUP FOR MINNESOTA
NATIONAL WEATHER SERVICE TWIN CITIES/CHANHASSEN MN
500 PM CDT WED MAY 24 2017


NOTE: "FAIR" INDICATES FEW OR NO CLOUDS BELOW 12,000 FEET WITH NO
SIGNIFICANT WEATHER AND/OR OBSTRUCTIONS TO VISIBILITY. N/A MEANS
CURRENT SKY AND/OR WEATHER CONDITIONS ARE NOT AVAILABLE.

MNZ060>063-068>070-242300-
   Twin Cities Metro

CITY           SKY/WX    TMP DP  RH WIND       PRES   REMARKS
TWIN CITIES    PTSUNNY   62  44  51 NE10G16   29.70F
ST PAUL        CLOUDY    61  46  57 NE6       29.71F
CRYSTAL        CLOUDY    61  42  49 NE8       29.70F
BLAINE         PTSUNNY   63  45  51 NE8       29.72S
LAKEVILLE      PTSUNNY   61  45  55 N5        29.70F
EDEN PRAIRIE   CLOUDY    62  43  49 NE9       29.69F
SOUTH ST PAUL  CLOUDY    62  44  52 E6        29.70F
LAKE ELMO      CLOUDY    59  46  63 NE6       29.72S
$$
MNZ001>005-007-008-013>017-022>024-027-028-242300-
   Northwest Minnesota

CITY           SKY/WX    TMP DP  RH WIND       PRES   REMARKS
BEMIDJI        CLOUDY    64  42  44 SE14G20   29.71F
HALLOCK        MOSUNNY   70  34  26 S20G31    29.62F
ROSEAU         PTSUNNY   70  41  35 S14       29.66F
WARROAD        SUNNY     70  43  37 SE12      29.67F
CROOKSTON      PTSUNNY   68  41  37 S16G25    29.65F
FOSSTON        MOSUNNY   64  43  45 SE12      29.69F
DETROIT LAKES  MOSUNNY   61  41  48 SE14G20   29.70F
MOORHEAD       PTSUNNY   64  41  42 SE15G21   29.67F
PARK RAPIDS    LGT RAIN  62  37  39 SE18      29.70F
MAHNOMEN       MOCLDY    62  40  44 S12       29.68F
$$
MNZ006-009>011-018-025>026-242300-
   North Central Minnesota

CITY           SKY/WX    TMP DP  RH WIND       PRES   REMARKS
BAUDETTE       SUNNY     69  35  28 SE12      29.68F
FLAG ISLAND    SUNNY     64  39  39 CALM      29.68F
INTL FALLS     SUNNY     68  32  26 SE7       29.70F
WASKISH        PTSUNNY   64  39  39 SE8       29.70S
BIG FORK       CLOUDY    63  41  45 SE9       29.73S
LONGVILLE      PTSUNNY   61  43  51 SE5       29.72F
GRAND RAPIDS   PTSUNNY   59  41  51 VRB7      29.75F
CRANE LAKE     PTSUNNY   64  37  36 SE6G17    29.74F
ORR            CLOUDY    63  36  36 SE8       29.71F HAZE
COOK           CLOUDY    63  39  42 SE5       29.75F
WALKER         CLOUDY    59  42  54 E9        29.72F
$$
MNZ012-019>021-037-242300-
   Northeast Minnesota

CITY           SKY/WX    TMP DP  RH WIND       PRES   REMARKS
DULUTH         PTSUNNY   59  43  55 E16       29.75F
ELY            MOSUNNY   63  34  34 SE13      29.74F
HIBBING        PTSUNNY   60  39  45 SE13G23   29.74F
EVELETH        MOSUNNY   62  30  29 SE13G21   29.75F
DULUTH HARBOR  MOSUNNY   48  43  81 NE15      29.77S
TWO HARBORS    SUNNY     59  48  67 E13       29.76S
SILVER BAY     MOSUNNY   55  45  67 E9        29.77S
GRAND MARAIS     N/A     49  37  63 NE9       29.80R
G MARAIS ARPRT SUNNY     57  27  30 SE8       29.79R
$$
MNZ029>031-032-039>041-046>048-054>057-064-242300-
   West Central Minnesota

CITY           SKY/WX    TMP DP  RH WIND       PRES   REMARKS
FERGUS FALLS   CLOUDY    61  43  51 S10       29.68S
WHEATON        CLOUDY    61  43  51 SE13      29.70F
MORRIS         CLOUDY    61  45  55 E9        29.69F
ALEXANDRIA     CLOUDY    58  42  55 SE13      29.72S
ELBOW LAKE     CLOUDY    59  44  58 SE10      29.70F
WADENA         PTSUNNY   59  43  55 SE14      29.70S
GLENWOOD       PTSUNNY   57  45  62 E8        29.72S
APPLETON       CLOUDY    61  43  51 SE8       29.69F
BENSON         CLOUDY    61  43  51 S6        29.72S
ORTONVILLE     CLOUDY    61  46  59 SE8       29.69S
MADISON        CLOUDY    63  46  55 SE5       29.69F
WILLMAR        CLOUDY    61  46  59 E8        29.72S
$$
MNZ033>034-036-042>043-049>051-058-059-242300-
   Central Minnesota

CITY           SKY/WX    TMP DP  RH WIND       PRES   REMARKS
ST CLOUD       CLOUDY    59  44  57 E6        29.71F
SAUK CENTRE    CLOUDY    57  43  59 E8        29.72S
PAYNESVILLE    CLOUDY    59  43  55 E9        29.72S
AITKIN         CLOUDY    59  41  51 E6        29.71S
PINE RIVER     SUNNY     61  45  55 SE9G16    29.76S
BRAINERD       PTSUNNY   60  40  47 E9        29.72F
STAPLES        CLOUDY    59  39  47 SE7       29.71S
LONG PRAIRIE   CLOUDY    55  43  62 NE7       29.72S
LITTLE FALLS   PTSUNNY   57  41  54 SE3       29.72F
LITCHFIELD     CLOUDY    61  48  63 E6        29.71F
BUFFALO        CLOUDY    60  43  52 NE7       29.72S
MAPLE LAKE     CLOUDY    59  46  61 E3        29.72F
HUTCHINSON     CLOUDY    60  46  59 NE7       29.72S
$$
MNZ037-044-045-052-053-242300-
   East Central Minnesota

CITY           SKY/WX    TMP DP  RH WIND       PRES   REMARKS
PRINCETON      PTSUNNY   64  45  48 NE12      29.71F
MORA           PTSUNNY   55  41  58 NE6       29.74S
CAMBRIDGE      CLOUDY    63  45  51 NE6       29.70F
RUSH CITY      CLOUDY    60  44  54 NE6       29.72S
MOOSE LAKE     CLOUDY    55  41  58 NE7       29.72F
HINCKLEY       CLOUDY    59  45  58 N7        29.72F
CLOQUET        CLOUDY    57  39  51 E12G17    29.75F
MCGREGOR       CLOUDY    59  41  51 E12       29.74S
$$
MNZ071>073-080-081-089-090-097-098-242300-
   Southwest Minnesota

CITY           SKY/WX    TMP DP  RH WIND       PRES   REMARKS
MONTEVIDEO     CLOUDY    61  45  55 CALM      29.70S
CANBY          CLOUDY    60  46  59 CALM      29.71S
MARSHALL       CLOUDY    59  44  57 E5        29.70F
REDWOOD FALLS  CLOUDY    60  43  53 VRB7      29.69F
OLIVIA         CLOUDY    59  43  55 SE5       29.70S
PIPESTONE      PTSUNNY   61  37  41 SE3       29.69F
WINDOM         MOSUNNY   59  45  58 E3        29.70F
WORTHINGTON    CLOUDY    58  45  62 NE7       29.71F
JACKSON        PTSUNNY   59  45  58 CALM      29.71S
TRACY          CLOUDY    59  45  59 E3        29.71S
SLAYTON        CLOUDY    57  45  62 NE6       29.71F
$$
MNZ065>067-074>077-082>085-091>093-242300-
   South Central Minnesota

CITY           SKY/WX    TMP DP  RH WIND       PRES   REMARKS
MANKATO        CLOUDY    59  46  62 NE7       29.70F
NEW ULM        MOSUNNY   61  45  55 CALM      29.70F
ST JAMES       CLOUDY    59  46  63 NE6       29.71F
FAIRMONT       CLOUDY    59  45  59 NE6       29.70F
GLENCOE        CLOUDY    61  47  60 CALM      29.70S
FARIBAULT      CLOUDY    61  46  59 N8        29.70F
OWATONNA       PTSUNNY   61  46  59 N9        29.70S
WASECA         CLOUDY    55  45  67 N8        29.71S
ALBERT LEA     PTSUNNY   63  46  55 N7        29.68S
$$
MNZ078>079-086>088-094>096-242300-
   Southeast Minnesota

CITY           SKY/WX    TMP DP  RH WIND       PRES   REMARKS
ROCHESTER      CLOUDY    58  47  66 N9        29.70S
RED WING       CLOUDY    61  43  51 NE6       29.69S
STANTON        CLOUDY    62  46  56 NE8       29.69S
DODGE CENTER   CLOUDY    57  46  67 NE9       29.69S
WINONA         CLOUDY    61  46  59 E8        29.68S
AUSTIN         CLOUDY    61  46  59 NE7       29.68S
PRESTON        CLOUDY    58  46  63 NE7       29.68S
$$
ABBREVIATIONS USED IN REMARKS
   TC - TEMPERATURES IN CELSIUS
  WCI - WIND CHILL INDEX
   HX - HEAT INDEX
  VSB - VISIBILITY
$$




USA.gov is the U.S. government's official web portal to all federal, state and local government web resources and services.